Regional Weather Roundup
Issued by NWS Burlington, VT

Home | Current Version | Previous Version | Text Only | Print | Product List | Glossary On
Versions: 1 2 3 4 5 6 7 8 9 10 11 12 13 14 15 16 17 18 19 20 21 22 23 24 25 26 27 28 29 30 31 32 33 34 35 36 37 38 39 40 41 42 43 44 45 46 47 48 49 50
253
ASUS41 KBTV 241730
RWRBTV
VERMONT REGIONAL WEATHER ROUNDUP
NATIONAL WEATHER SERVICE BURLINGTON VT
1200 PM EST TUE JAN 24 2017

NOTE: "FAIR" INDICATES FEW OR NO CLOUDS BELOW 12,000 FEET WITH NO
SIGNIFICANT WEATHER AND/OR OBSTRUCTIONS TO VISIBILITY.

* THESE REPORTS ARE NOT UNDER NWS QUALITY CONTROL AND/OR DO NOT
  REPORT WEATHER SUCH AS PRECIPITATION AND FOG.

VTZ001>019-241800-
_____VERMONT_____


CITY           SKY/WX    TMP DP  RH WIND       PRES   REMARKS
BURLINGTON     FRZ DRZL  31  29  92 N9        29.58F FOG     WCI  23
MONTPELIER     LGT SNOW  32  32 100 CALM      29.56F FOG
MORRISVILLE    CLOUDY    32  31  96 N6        29.56F FOG     WCI  26
ST. JOHNSBURY*   N/A     34  32  92 MISG      29.54F
LYNDONVILLE*   CLOUDY    34  30  86 CALM      29.55F
MIDDLEBURY*    CLOUDY    30  30 100 N8        29.54F WCI  22
RUTLAND*       CLOUDY    35  29  78 VRB6      29.50F WCI  30
SPRINGFIELD    CLOUDY    33  28  81 CALM      29.53F
HIGHGATE*      CLOUDY    30  29  97 N5        29.61F WCI  25
NEWPORT*       CLOUDY    29  28  94 N12       29.58F WCI  19
BENNINGTON     CLOUDY    36  26  67 N6        29.44F WCI  31
SUTTON*          N/A     32 N/A N/A MISG        N/A
GALLUP MILLS*    N/A     32 N/A N/A MISG        N/A
UNION VILLAGE*   N/A     34 N/A N/A MISG        N/A
MT. MANSFIELD*   N/A     25 N/A N/A CALM        N/A

_____LAKE CHAMPLAIN_____


CITY           SKY/WX    TMP DP  RH WIND       PRES   REMARKS
BURTON ISLAND*   N/A     32  32 100 N1          N/A

$$

NYZ007-026>031-035-052-083-087-241800-
_____NORTHERN NEW YORK_____


CITY           SKY/WX    TMP DP  RH WIND       PRES   REMARKS
PLATTSBURGH    MIX PCPN  29  26  89 N18       29.60F FOG     WCI  16
SARANAC LAKE   CLOUDY    29  25  85 NE12      29.51F FOG     WCI  19
MASSENA        LGT SNOW  28  26  92 NE13      29.66F FOG     WCI  17
OGDENSBURG*    LGT SNOW  30  28  93 NE8       29.64F WCI  23
POTSDAM*       LGT SNOW  27  27 100 NE14G22   29.62F WCI  15
WATERTOWN      LGT SNOW  29  28  96 NE10      29.60F VSB 3/4 WCI  20
FT DRUM        DRIZZLE   28  25  86 N9        29.57F WCI  20
ALBANY         CLOUDY    34  30  85 N12       29.50F WCI  25
GLENS FALLS    CLOUDY    35  30  82 N9        29.52F WCI  28

$$
NHZ002-005-011-241800-
_____NEW HAMPSHIRE_____


CITY           SKY/WX    TMP DP  RH WIND       PRES   REMARKS
LEBANON        CLOUDY    34  32  92 W3        29.53F
MT WASHINGTON  LGTSLEET  21  21 100 E53G84      N/A  VSB 1/8 WCI  -1
PLYMOUTH       MIX PCPN  36  31  81 E8G18     29.53F WCI  30
WHITEFIELD     LGT RAIN  34  26  72 E12G26    29.54F WCI  25

$$

_____REGIONAL QUEBEC LOCATIONS_____


CITY           SKY/WX    TMP DP  RH WIND       PRES   REMARKS
MONTREAL       LGT SNOW  25  23  93 NE28G33   29.67F DRFTSNOWWCI   8
QUEBEC CITY    LGT SNOW  28  10  47 E16G37    29.85F DRFTSNOWWCI  17
SHERBROOKE     FLURRIES  27  23  86 NE16G24   29.64F WCI  14

_____REGIONAL ONTARIO LOCATIONS_____


CITY           SKY/WX    TMP DP  RH WIND       PRES   REMARKS
OTTAWA         LGT SNOW  27  25  93 NE6       29.67F VSB 1   WCI  20

______KEY______
VSB  - VISIBILITY IN MILES
WCI  - WIND CHILL INDEX
HX   - HEAT INDEX
$$
NNNN




USA.gov is the U.S. government's official web portal to all federal, state and local government web resources and services.